Location: Los Ranchitos
(37.9930°N, 122.5425°W)
Time: 02:50:17
(UTC+00:00)

ADEOS II - Pass Details

Date: 21 September 2020
Orbit: 799 x 801 km, 98.5° (Epoch: 27 October)

Event Time Altitude Azimuth Distance (km) Brightness Sun altitude
Rises 10:46:04 0° 9° (N) 3,314 5.8 -36.3°
Reaches altitude 10° 10:48:25 10° 6° (N) 2,380 4.9 -36.0°
Enters shadow 10:50:02 20° 2° (N) 1,765 4.1 -35.7°
